Location: Tel Aviv
(32.0670°N, 34.7670°E)
Time: 15:05:03
(UTC+03:00)

DIWATA 2B (PO-101) - Visible Passes

Search period start: 17 September 2024 00:00
Search period end: 27 September 2024 00:00
Orbit: 572 x 586 km, 98.1° (Epoch: 17 September)

Date Brightness Start Highest point End Pass type
(mag) Time Alt. Az. Time Alt. Az. Time Alt. Az.
17 Sep ? 04:43:34 27° S 04:45:45 81° WSW 04:49:50 10° NNW visible
18 Sep ? 04:48:31 30° S 04:50:25 70° WSW 04:54:30 10° NNW visible
19 Sep ? 04:53:28 34° SSW 04:55:04 61° WSW 04:59:07 10° NNW visible
20 Sep ? 04:58:26 36° SSW 04:59:43 52° W 05:03:42 10° NNW visible
21 Sep ? 03:28:36 10° E 03:29:33 11° ENE 03:30:30 10° NE visible
21 Sep ? 05:03:24 38° SW 05:04:20 45° W 05:08:16 10° NNW visible
22 Sep ? 03:32:28 10° E 03:34:07 12° ENE 03:35:45 10° NE visible
22 Sep ? 05:08:22 37° WSW 05:08:57 40° W 05:12:48 10° NNW visible
23 Sep ? 03:37:01 11° E 03:38:39 14° ENE 03:40:44 10° NE visible
23 Sep ? 05:13:20 34° WSW 05:13:33 35° W 05:17:17 10° NNW visible
24 Sep ? 03:41:59 14° E 03:43:10 16° ENE 03:45:36 10° NNE visible
24 Sep ? 05:18:19 30° W 05:18:19 30° W 05:21:45 10° NW visible
25 Sep ? 03:46:58 17° E 03:47:41 17° ENE 03:50:24 10° NNE visible
25 Sep ? 05:23:17 26° W 05:23:17 26° W 05:26:10 10° NW visible
26 Sep ? 03:51:55 19° ENE 03:52:11 20° ENE 03:55:08 10° NNE visible
26 Sep ? 05:28:15 22° WNW 05:28:15 22° WNW 05:30:33 10° NW visible
